Time,TemperatureF,DewpointF,PressureIn,WindDirection,WindDirectionDegrees,WindSpeedMPH,WindSpeedGustMPH,Humidity,HourlyPrecipIn,Conditions,Clouds,dailyrainin,SoftwareType,DateUTC
2013-04-09 00:00:00,40.0,20.3,30.01,SW,229,0.0,5.0,45,0.00,OVC,,0.00,WeatherDisplay:10.37,2013-04-09 04:00:00,
2013-04-09 00:01:00,40.0,20.3,30.01,SSW,202,0.0,0.0,45,0.00,OVC,,0.00,WeatherDisplay:10.37,2013-04-09 04:01:00,
2013-04-09 00:06:00,40.2,20.5,29.97,WNW,292,4.6,4.6,45,0.00,OVC,,0.00,WeatherDisplay:10.37,2013-04-09 04:06:00,
2013-04-09 00:07:00,40.1,20.4,29.97,South,180,4.6,4.6,45,0.00,OVC,,0.00,WeatherDisplay:10.37,2013-04-09 04:07:00,
2013-04-09 00:09:00,40.3,20.6,29.97,South,180,2.3,2.3,45,0.00,OVC,,0.00,WeatherDisplay:10.37,2013-04-09 04:09:00,
2013-04-09 00:15:00,40.6,20.9,29.97,West,270,0.0,0.0,45,0.00,OVC,,0.00,WeatherDisplay:10.37,2013-04-09 04:15:00,
2013-04-09 00:20:00,40.3,20.6,29.97,WSW,248,0.0,0.0,45,0.00,OVC,,0.00,WeatherDisplay:10.37,2013-04-09 04:20:00,
2013-04-09 00:25:00,40.3,20.6,29.97,WSW,248,0.0,0.0,45,0.00,OVC,,0.00,WeatherDisplay:10.37,2013-04-09 04:25:00,
2013-04-09 00:30:00,40.3,20.6,29.97,West,270,0.0,0.0,45,0.00,OVC,,0.00,WeatherDisplay:10.37,2013-04-09 04:30:00,
2013-04-09 00:36:00,40.2,19.4,29.97,SE,135,0.0,0.0,43,0.00,OVC,,0.00,WeatherDisplay:10.37,2013-04-09 04:36:00,
2013-04-09 00:41:00,40.3,20.6,29.97,SW,225,4.6,4.6,45,0.00,OVC,,0.00,WeatherDisplay:10.37,2013-04-09 04:41:00,
2013-04-09 00:46:00,40.2,20.5,29.97,South,180,3.0,3.0,45,0.00,OVC,,0.00,WeatherDisplay:10.37,2013-04-09 04:46:00,
2013-04-09 00:51:00,40.5,20.8,29.97,SSW,202,3.5,3.5,45,0.00,OVC,,0.00,WeatherDisplay:10.37,2013-04-09 04:51:00,
2013-04-09 00:57:00,40.3,20.6,29.97,SE,135,1.5,1.5,45,0.00,OVC,,0.00,WeatherDisplay:10.37,2013-04-09 04:57:00,
2013-04-09 01:02:00,40.2,20.5,29.94,West,270,3.5,3.5,45,0.00,OVC,,0.00,WeatherDisplay:10.37,2013-04-09 05:02:00,
2013-04-09 01:07:00,40.4,20.7,29.94,WNW,292,3.5,3.5,45,0.00,OVC,,0.00,WeatherDisplay:10.37,2013-04-09 05:07:00,
2013-04-09 01:12:00,40.7,20.9,29.94,SW,225,3.5,3.5,45,0.00,OVC,,0.00,WeatherDisplay:10.37,2013-04-09 05:12:00,
2013-04-09 01:17:00,40.7,26.6,29.94,NW,315,3.5,3.5,57,0.00,OVC,,0.00,WeatherDisplay:10.37,2013-04-09 05:17:00,
2013-04-09 01:22:00,40.7,25.8,29.94,SSW,202,2.3,2.3,55,0.00,OVC,,0.00,WeatherDisplay:10.37,2013-04-09 05:22:00,
2013-04-09 01:27:00,41.0,26.9,29.94,South,180,11.5,11.5,57,0.00,OVC,,0.00,WeatherDisplay:10.37,2013-04-09 05:27:00,
2013-04-09 01:32:00,41.3,27.2,29.94,NE,45,4.6,4.6,57,0.00,OVC,,0.00,WeatherDisplay:10.37,2013-04-09 05:32:00,
2013-04-09 01:37:00,41.6,26.6,29.94,NE,45,6.9,6.9,55,0.00,OVC,,0.00,WeatherDisplay:10.37,2013-04-09 05:37:00,
2013-04-09 01:42:00,41.7,27.6,29.94,NNW,338,4.6,4.6,57,0.00,OVC,,0.00,WeatherDisplay:10.37,2013-04-09 05:42:00,
2013-04-09 01:47:00,42.2,28.0,29.94,SSE,158,8.1,8.1,57,0.00,OVC,,0.00,WeatherDisplay:10.37,2013-04-09 05:47:00,
2013-04-09 01:52:00,42.6,28.4,29.94,NW,315,6.9,6.9,57,0.00,OVC,,0.00,WeatherDisplay:10.37,2013-04-09 05:52:00,
2013-04-09 01:57:00,42.7,28.6,29.94,ENE,68,4.6,4.6,57,0.00,OVC,,0.00,WeatherDisplay:10.37,2013-04-09 05:57:00,
2013-04-09 02:02:00,42.6,27.6,27.28,SSE,158,4.7,4.7,55,0.00,BKN,,0.00,WeatherDisplay:10.37,2013-04-09 06:02:00,
2013-04-09 02:07:00,42.4,31.8,29.93,SSW,202,8.1,8.1,66,0.01,RA,,0.01,WeatherDisplay:10.37,2013-04-09 06:07:00,
2013-04-09 02:13:00,41.9,31.4,29.93,ESE,112,3.5,3.5,66,0.01,RA,,0.01,WeatherDisplay:10.37,2013-04-09 06:13:00,
2013-04-09 02:18:00,41.6,30.3,29.93,West,270,3.1,3.1,64,0.01,BKN,,0.01,WeatherDisplay:10.37,2013-04-09 06:18:00,
2013-04-09 02:23:00,41.4,30.9,29.93,WSW,248,8.1,8.1,66,0.01,BKN,,0.01,WeatherDisplay:10.37,2013-04-09 06:23:00,
2013-04-09 02:28:00,41.4,30.1,29.93,WNW,292,1.2,0.0,64,0.01,BKN,,0.01,WeatherDisplay:10.37,2013-04-09 06:28:00,
2013-04-09 02:33:00,41.4,30.9,29.93,South,180,6.9,6.9,66,0.02,RA,,0.02,WeatherDisplay:10.37,2013-04-09 06:33:00,
2013-04-09 02:38:00,41.3,30.8,29.93,South,180,4.6,4.6,66,0.02,RA,,0.02,WeatherDisplay:10.37,2013-04-09 06:38:00,
2013-04-09 02:43:00,41.4,30.9,29.93,SW,225,4.6,4.6,66,0.02,BKN,,0.02,WeatherDisplay:10.37,2013-04-09 06:43:00,
2013-04-09 02:48:00,41.3,30.8,29.93,NW,315,4.6,4.6,66,0.02,BKN,,0.02,WeatherDisplay:10.37,2013-04-09 06:48:00,
2013-04-09 02:53:00,41.5,31.0,29.93,SSW,202,3.5,3.5,66,0.02,BKN,,0.02,WeatherDisplay:10.37,2013-04-09 06:53:00,
2013-04-09 02:58:00,41.5,30.2,29.93,SE,135,11.5,11.5,64,0.02,BKN,,0.02,WeatherDisplay:10.37,2013-04-09 06:58:00,
2013-04-09 03:03:00,41.5,34.1,29.88,East,90,9.2,9.2,75,0.02,OVC,,0.02,WeatherDisplay:10.37,2013-04-09 07:03:00,
2013-04-09 03:08:00,41.7,30.4,29.88,West,270,4.6,4.6,64,0.01,OVC,,0.02,WeatherDisplay:10.37,2013-04-09 07:08:00,
2013-04-09 03:13:00,41.6,33.5,29.88,SW,225,4.6,4.6,73,0.01,OVC,,0.02,WeatherDisplay:10.37,2013-04-09 07:13:00,
2013-04-09 03:18:00,41.9,33.9,29.88,WNW,292,5.8,5.8,73,0.01,OVC,,0.02,WeatherDisplay:10.37,2013-04-09 07:18:00,
2013-04-09 03:23:00,42.1,34.8,29.88,East,90,9.2,9.2,75,0.01,OVC,,0.02,WeatherDisplay:10.37,2013-04-09 07:23:00,
2013-04-09 03:28:00,42.2,34.9,29.88,East,90,8.1,8.1,75,0.01,OVC,,0.02,WeatherDisplay:10.37,2013-04-09 07:28:00,
2013-04-09 03:33:00,42.4,34.3,29.88,SE,135,4.6,4.6,73,0.00,OVC,,0.02,WeatherDisplay:10.37,2013-04-09 07:33:00,
2013-04-09 03:38:00,42.6,34.5,29.88,NE,45,9.2,9.2,73,0.00,OVC,,0.02,WeatherDisplay:10.37,2013-04-09 07:38:00,
2013-04-09 03:44:00,42.5,35.2,29.88,SE,135,5.8,5.8,75,0.00,OVC,,0.02,WeatherDisplay:10.37,2013-04-09 07:44:00,
2013-04-09 03:49:00,42.7,34.6,29.88,SE,135,5.9,5.9,73,0.00,OVC,,0.02,WeatherDisplay:10.37,2013-04-09 07:49:00,
2013-04-09 03:54:00,42.9,35.5,29.88,SE,135,5.8,5.8,75,0.00,OVC,,0.02,WeatherDisplay:10.37,2013-04-09 07:54:00,
2013-04-09 03:59:00,42.9,34.8,29.88,SSE,158,3.5,3.5,73,0.00,OVC,,0.02,WeatherDisplay:10.37,2013-04-09 07:59:00,
2013-04-09 04:04:00,42.8,37.4,29.84,SSE,158,5.8,5.8,81,0.00,OVC,,0.02,WeatherDisplay:10.37,2013-04-09 08:04:00,
2013-04-09 04:09:00,42.8,35.1,29.84,East,90,6.9,6.9,74,0.00,OVC,,0.02,WeatherDisplay:10.37,2013-04-09 08:09:00,
2013-04-09 04:15:00,42.7,37.3,29.84,South,180,4.6,4.6,81,0.00,OVC,,0.02,WeatherDisplay:10.37,2013-04-09 08:15:00,
2013-04-09 04:20:00,42.5,35.5,29.84,NNW,338,6.9,6.9,76,0.00,OVC,,0.02,WeatherDisplay:10.37,2013-04-09 08:20:00,
2013-04-09 04:25:00,42.1,35.0,29.84,SSW,202,6.9,6.9,76,0.00,OVC,,0.02,WeatherDisplay:10.37,2013-04-09 08:25:00,
2013-04-09 04:30:00,41.8,34.8,29.84,ESE,112,5.0,5.0,76,0.00,OVC,,0.02,WeatherDisplay:10.37,2013-04-09 08:30:00,
2013-04-09 04:35:00,41.4,34.4,29.84,SE,135,1.6,1.6,76,0.00,OVC,,0.02,WeatherDisplay:10.37,2013-04-09 08:35:00,
2013-04-09 04:40:00,41.2,34.2,29.84,NNW,338,3.5,3.5,76,0.00,OVC,,0.02,WeatherDisplay:10.37,2013-04-09 08:40:00,
2013-04-09 04:46:00,41.3,34.3,29.84,SSE,158,6.9,6.9,76,0.00,OVC,,0.02,WeatherDisplay:10.37,2013-04-09 08:46:00,
2013-04-09 04:51:00,41.7,34.7,29.84,SW,225,5.8,5.8,76,0.00,OVC,,0.02,WeatherDisplay:10.37,2013-04-09 08:51:00,
2013-04-09 04:56:00,41.7,34.7,29.84,ENE,68,6.9,6.9,76,0.00,OVC,,0.02,WeatherDisplay:10.37,2013-04-09 08:56:00,
2013-04-09 05:01:00,41.7,34.7,29.84,SSE,158,3.5,3.5,76,0.00,OVC,,0.02,WeatherDisplay:10.37,2013-04-09 09:01:00,
2013-04-09 05:06:00,41.8,38.3,29.84,SSE,158,6.9,6.9,87,0.00,BKN,,0.02,WeatherDisplay:10.37,2013-04-09 09:06:00,
2013-04-09 05:11:00,42.2,38.6,29.84,South,180,4.6,4.6,87,0.00,BKN,,0.02,WeatherDisplay:10.37,2013-04-09 09:11:00,
2013-04-09 05:18:00,42.5,38.9,29.84,SW,225,3.5,3.5,87,0.00,BKN,,0.02,WeatherDisplay:10.37,2013-04-09 09:18:00,
2013-04-09 05:23:00,42.6,39.0,29.84,SSW,202,5.8,5.8,87,0.00,BKN,,0.02,WeatherDisplay:10.37,2013-04-09 09:23:00,
2013-04-09 05:29:00,42.7,38.8,29.84,South,180,6.9,6.9,86,0.00,BKN,,0.02,WeatherDisplay:10.37,2013-04-09 09:29:00,
2013-04-09 05:34:00,43.1,39.2,29.84,SSE,158,8.1,8.1,86,0.00,BKN,,0.02,WeatherDisplay:10.37,2013-04-09 09:34:00,
2013-04-09 05:39:00,43.4,39.5,29.84,SE,135,8.1,8.1,86,0.00,BKN,,0.02,WeatherDisplay:10.37,2013-04-09 09:39:00,
2013-04-09 05:45:00,43.1,39.5,29.84,South,180,4.6,4.6,87,0.00,BKN,,0.02,WeatherDisplay:10.37,2013-04-09 09:45:00,
2013-04-09 05:50:00,43.4,39.5,29.84,SW,225,6.9,6.9,86,0.00,BKN,,0.02,WeatherDisplay:10.37,2013-04-09 09:50:00,
2013-04-09 05:55:00,43.1,39.2,29.84,SSW,202,4.6,4.6,86,0.00,BKN,,0.02,WeatherDisplay:10.37,2013-04-09 09:55:00,
2013-04-09 06:00:00,43.3,39.4,29.84,SE,135,5.9,5.9,86,0.00,BKN,,0.02,WeatherDisplay:10.37,2013-04-09 10:00:00,
2013-04-09 06:06:00,43.3,39.7,29.84,South,180,1.5,1.5,87,0.00,BKN,,0.02,WeatherDisplay:10.37,2013-04-09 10:06:00,
2013-04-09 06:11:00,42.7,39.1,29.84,WSW,248,1.2,1.2,87,0.00,BKN,,0.02,WeatherDisplay:10.37,2013-04-09 10:11:00,
2013-04-09 06:16:00,42.1,38.2,29.84,WSW,248,0.0,0.0,86,0.00,BKN,,0.02,WeatherDisplay:10.37,2013-04-09 10:16:00,
2013-04-09 06:22:00,41.6,38.0,29.84,SSE,158,5.0,5.0,87,0.00,BKN,,0.02,WeatherDisplay:10.37,2013-04-09 10:22:00,
2013-04-09 06:28:00,41.2,37.4,29.84,SSW,202,4.6,4.6,86,0.00,BKN,,0.02,WeatherDisplay:10.37,2013-04-09 10:28:00,
2013-04-09 06:33:00,41.3,37.8,29.84,South,180,4.8,4.8,87,0.00,BKN,,0.02,WeatherDisplay:10.37,2013-04-09 10:33:00,
2013-04-09 06:38:00,41.3,37.7,29.84,ENE,68,0.0,0.0,87,0.00,BKN,,0.02,WeatherDisplay:10.37,2013-04-09 10:38:00,
2013-04-09 06:43:00,40.6,36.7,29.84,West,270,0.0,0.0,86,0.00,BKN,,0.02,WeatherDisplay:10.37,2013-04-09 10:43:00,
2013-04-09 06:48:00,40.2,36.7,29.84,SW,225,3.5,3.5,87,0.00,BKN,,0.02,WeatherDisplay:10.37,2013-04-09 10:48:00,
2013-04-09 06:54:00,40.3,36.5,29.84,SW,225,1.2,1.2,86,0.00,BKN,,0.02,WeatherDisplay:10.37,2013-04-09 10:54:00,
2013-04-09 06:59:00,40.9,37.0,29.84,SSW,202,4.6,4.6,86,0.00,BKN,,0.02,WeatherDisplay:10.37,2013-04-09 10:59:00,
2013-04-09 07:05:00,41.4,37.5,29.83,WNW,292,6.2,6.2,86,0.00,BKN,,0.02,WeatherDisplay:10.37,2013-04-09 11:05:00,
2013-04-09 07:10:00,41.4,37.5,29.83,West,270,3.5,3.5,86,0.00,BKN,,0.02,WeatherDisplay:10.37,2013-04-09 11:10:00,
2013-04-09 07:15:00,41.6,36.2,29.83,SW,225,3.5,3.5,81,0.00,BKN,,0.02,WeatherDisplay:10.37,2013-04-09 11:15:00,
2013-04-09 07:20:00,42.0,38.1,29.83,WNW,292,4.5,4.5,86,0.00,BKN,,0.02,WeatherDisplay:10.37,2013-04-09 11:20:00,
2013-04-09 07:25:00,42.9,39.0,29.83,East,90,3.5,3.5,86,0.00,BKN,,0.02,WeatherDisplay:10.37,2013-04-09 11:25:00,
2013-04-09 07:30:00,43.5,39.6,29.83,SE,135,4.4,4.4,86,0.00,BKN,,0.02,WeatherDisplay:10.37,2013-04-09 11:30:00,
2013-04-09 07:35:00,43.5,38.1,29.83,NW,315,4.6,4.6,81,0.00,BKN,,0.02,WeatherDisplay:10.37,2013-04-09 11:35:00,
2013-04-09 07:40:00,43.4,39.5,29.83,SSW,202,3.5,3.5,86,0.00,BKN,,0.02,WeatherDisplay:10.37,2013-04-09 11:40:00,
2013-04-09 07:46:00,43.4,39.5,29.83,NNW,338,3.0,3.0,86,0.00,BKN,,0.02,WeatherDisplay:10.37,2013-04-09 11:46:00,
2013-04-09 07:51:00,42.9,39.0,29.83,NW,315,4.6,4.6,86,0.00,BKN,,0.02,WeatherDisplay:10.37,2013-04-09 11:51:00,
2013-04-09 07:56:00,42.9,39.0,29.83,ESE,112,6.0,6.0,86,0.00,BKN,,0.02,WeatherDisplay:10.37,2013-04-09 11:56:00,
2013-04-09 08:01:00,43.0,39.1,29.83,SSW,202,3.5,3.5,86,0.00,BKN,,0.02,WeatherDisplay:10.37,2013-04-09 12:01:00,
2013-04-09 08:06:00,42.9,39.0,29.87,South,180,5.8,5.8,86,0.00,OVC,,0.02,WeatherDisplay:10.37,2013-04-09 12:06:00,
2013-04-09 08:11:00,42.9,35.8,29.87,NE,45,4.6,4.6,76,0.00,OVC,,0.02,WeatherDisplay:10.37,2013-04-09 12:11:00,
2013-04-09 08:16:00,43.1,36.7,29.87,East,90,4.6,4.6,78,0.00,OVC,,0.02,WeatherDisplay:10.37,2013-04-09 12:16:00,
2013-04-09 08:21:00,44.1,37.0,29.87,ENE,68,6.9,6.9,76,0.00,OVC,,0.02,WeatherDisplay:10.37,2013-04-09 12:21:00,
2013-04-09 08:26:00,45.9,39.4,29.87,West,270,10.4,10.4,78,0.00,OVC,,0.02,WeatherDisplay:10.37,2013-04-09 12:26:00,
2013-04-09 08:31:00,48.1,41.6,29.87,NE,45,12.7,12.7,78,0.00,OVC,,0.02,WeatherDisplay:10.37,2013-04-09 12:31:00,
2013-04-09 08:36:00,49.5,42.9,29.87,South,180,20.7,20.7,78,0.00,OVC,,0.02,WeatherDisplay:10.37,2013-04-09 12:36:00,
2013-04-09 08:42:00,50.8,43.5,29.87,NW,315,28.8,28.8,76,0.00,OVC,,0.02,WeatherDisplay:10.37,2013-04-09 12:42:00,
2013-04-09 08:48:00,53.2,46.5,29.87,NE,45,8.1,8.1,78,0.00,OVC,,0.02,WeatherDisplay:10.37,2013-04-09 12:48:00,
2013-04-09 08:53:00,54.2,46.8,29.87,NW,315,16.1,16.1,76,0.00,OVC,,0.02,WeatherDisplay:10.37,2013-04-09 12:53:00,
2013-04-09 09:00:00,54.1,47.3,29.87,West,270,17.3,17.3,78,0.00,OVC,,0.02,WeatherDisplay:10.37,2013-04-09 13:00:00,
2013-04-09 09:06:00,53.8,47.1,29.87,East,90,21.9,21.9,78,0.00,OVC,,0.02,WeatherDisplay:10.37,2013-04-09 13:06:00,
2013-04-09 09:11:00,53.3,46.6,27.28,NE,45,35.7,35.7,78,0.00,OVC,,0.02,WeatherDisplay:10.37,2013-04-09 13:11:00,
2013-04-09 09:16:00,53.3,43.0,29.87,NE,45,26.5,26.5,68,0.00,OVC,,0.02,WeatherDisplay:10.37,2013-04-09 13:16:00,
2013-04-09 09:21:00,53.0,42.0,29.87,WNW,292,26.5,26.5,66,0.00,OVC,,0.02,WeatherDisplay:10.37,2013-04-09 13:21:00,
2013-04-09 09:26:00,52.7,42.4,29.87,NNW,338,25.4,25.4,68,0.00,OVC,,0.02,WeatherDisplay:10.37,2013-04-09 13:26:00,
2013-04-09 09:31:00,52.9,42.6,29.87,WNW,292,26.5,26.5,68,0.00,OVC,,0.02,WeatherDisplay:10.37,2013-04-09 13:31:00,
2013-04-09 09:36:00,53.1,42.8,29.87,West,270,29.9,29.9,68,0.00,OVC,,0.02,WeatherDisplay:10.37,2013-04-09 13:36:00,
2013-04-09 09:41:00,53.4,43.1,27.28,NW,315,18.4,18.4,68,0.00,OVC,,0.02,WeatherDisplay:10.37,2013-04-09 13:41:00,
2013-04-09 09:46:00,53.3,43.0,29.87,NW,315,15.0,16.2,68,0.00,OVC,,0.02,WeatherDisplay:10.37,2013-04-09 13:46:00,
2013-04-09 09:51:00,53.8,42.7,29.87,NNE,22,21.9,21.9,66,0.00,OVC,,0.02,WeatherDisplay:10.37,2013-04-09 13:51:00,
2013-04-09 09:56:00,54.2,43.8,29.87,NW,315,18.4,18.4,68,0.00,OVC,,0.02,WeatherDisplay:10.37,2013-04-09 13:56:00,
2013-04-09 10:01:00,53.7,43.4,29.87,West,270,18.4,18.4,68,0.00,OVC,,0.02,WeatherDisplay:10.37,2013-04-09 14:01:00,
2013-04-09 10:06:00,53.9,43.6,29.87,NW,315,23.0,23.0,68,0.00,OVC,,0.02,WeatherDisplay:10.37,2013-04-09 14:06:00,
2013-04-09 10:11:00,54.2,43.8,27.28,NW,315,32.9,32.9,68,0.00,OVC,,0.02,WeatherDisplay:10.37,2013-04-09 14:11:00,
2013-04-09 10:16:00,54.0,43.7,29.87,NW,315,31.1,31.1,68,0.00,OVC,,0.02,WeatherDisplay:10.37,2013-04-09 14:16:00,
2013-04-09 10:21:00,54.8,44.5,29.87,NW,315,24.2,24.2,68,0.00,OVC,,0.02,WeatherDisplay:10.37,2013-04-09 14:21:00,
2013-04-09 10:26:00,54.8,44.4,29.87,WNW,292,23.5,23.5,68,0.00,OVC,,0.02,WeatherDisplay:10.37,2013-04-09 14:26:00,
2013-04-09 10:31:00,54.6,44.2,29.87,North,360,23.0,23.0,68,0.00,OVC,,0.02,WeatherDisplay:10.37,2013-04-09 14:31:00,
2013-04-09 10:36:00,54.4,44.0,29.87,NW,315,29.9,29.9,68,0.00,OVC,,0.02,WeatherDisplay:10.37,2013-04-09 14:36:00,
2013-04-09 10:41:00,53.5,43.2,27.28,NNW,338,36.8,36.8,68,0.00,OVC,,0.02,WeatherDisplay:10.37,2013-04-09 14:41:00,
2013-04-09 10:46:00,54.1,43.8,29.87,NW,315,23.0,23.0,68,0.00,OVC,,0.02,WeatherDisplay:10.37,2013-04-09 14:46:00,
2013-04-09 10:51:00,53.7,42.6,29.87,NW,315,29.9,29.9,66,0.00,OVC,,0.02,WeatherDisplay:10.37,2013-04-09 14:51:00,
2013-04-09 10:56:00,53.3,43.0,29.87,NNW,338,33.4,33.4,68,0.00,OVC,,0.02,WeatherDisplay:10.37,2013-04-09 14:56:00,
2013-04-09 11:01:00,53.6,43.3,29.87,SW,225,29.9,29.9,68,0.00,OVC,,0.02,WeatherDisplay:10.37,2013-04-09 15:01:00,
2013-04-09 11:06:00,54.3,44.0,29.87,North,360,21.9,21.9,68,0.00,OVC,,0.02,WeatherDisplay:10.37,2013-04-09 15:06:00,
2013-04-09 11:11:00,53.0,42.8,27.28,North,360,32.2,32.2,68,0.00,OVC,,0.02,WeatherDisplay:10.37,2013-04-09 15:11:00,
2013-04-09 11:16:00,52.8,42.5,29.87,West,270,25.3,25.3,68,0.00,OVC,,0.02,WeatherDisplay:10.37,2013-04-09 15:16:00,
2013-04-09 11:22:00,51.7,41.5,29.87,NW,315,21.9,21.9,68,0.00,OVC,,0.02,WeatherDisplay:10.37,2013-04-09 15:22:00,
2013-04-09 11:27:00,51.6,41.4,29.93,ENE,68,25.3,25.3,68,0.00,OVC,,0.02,WeatherDisplay:10.37,2013-04-09 15:27:00,
2013-04-09 11:32:00,51.2,41.0,27.28,NNW,338,24.2,24.2,68,0.00,OVC,,0.02,WeatherDisplay:10.37,2013-04-09 15:32:00,
2013-04-09 11:38:00,50.8,39.9,29.93,North,360,23.0,23.0,66,0.00,OVC,,0.02,WeatherDisplay:10.37,2013-04-09 15:38:00,
2013-04-09 11:43:00,50.7,40.5,29.93,NW,315,29.9,29.9,68,0.00,OVC,,0.02,WeatherDisplay:10.37,2013-04-09 15:43:00,
2013-04-09 11:48:00,51.7,40.7,29.93,West,270,16.1,16.1,66,0.00,OVC,,0.02,WeatherDisplay:10.37,2013-04-09 15:48:00,
2013-04-09 11:53:00,52.2,41.9,27.28,WSW,248,24.2,24.2,68,0.00,OVC,,0.02,WeatherDisplay:10.37,2013-04-09 15:53:00,
2013-04-09 11:58:00,52.1,41.1,29.93,NW,315,26.5,26.5,66,0.00,OVC,,0.02,WeatherDisplay:10.37,2013-04-09 15:58:00,
2013-04-09 12:03:00,52.3,42.0,29.93,NW,315,20.7,20.7,68,0.00,OVC,,0.02,WeatherDisplay:10.37,2013-04-09 16:03:00,
2013-04-09 12:08:00,51.7,41.5,29.93,WNW,292,33.4,33.4,68,0.00,OVC,,0.02,WeatherDisplay:10.37,2013-04-09 16:08:00,
2013-04-09 12:13:00,52.3,42.0,29.93,North,360,26.5,26.5,68,0.00,OVC,,0.02,WeatherDisplay:10.37,2013-04-09 16:13:00,
2013-04-09 12:18:00,51.5,40.5,29.93,NW,315,31.1,31.1,66,0.00,OVC,,0.02,WeatherDisplay:10.37,2013-04-09 16:18:00,
2013-04-09 12:23:00,51.6,41.4,27.28,WNW,292,23.0,23.0,68,0.00,OVC,,0.02,WeatherDisplay:10.37,2013-04-09 16:23:00,
2013-04-09 12:28:00,51.5,41.2,29.93,West,270,35.7,35.7,68,0.00,OVC,,0.02,WeatherDisplay:10.37,2013-04-09 16:28:00,
2013-04-09 12:33:00,51.6,41.4,29.93,West,270,20.7,20.7,68,0.00,OVC,,0.02,WeatherDisplay:10.37,2013-04-09 16:33:00,
2013-04-09 12:38:00,52.7,42.4,29.93,North,360,16.1,16.1,68,0.00,OVC,,0.02,WeatherDisplay:10.37,2013-04-09 16:38:00,
2013-04-09 12:43:00,53.6,43.3,29.93,West,270,27.6,27.6,68,0.00,OVC,,0.02,WeatherDisplay:10.37,2013-04-09 16:43:00,
2013-04-09 12:48:00,53.5,43.2,29.93,NNW,338,29.1,29.1,68,0.00,OVC,,0.02,WeatherDisplay:10.37,2013-04-09 16:48:00,
2013-04-09 12:53:00,53.9,42.8,29.93,NW,315,25.3,25.3,66,0.00,OVC,,0.02,WeatherDisplay:10.37,2013-04-09 16:53:00,
2013-04-09 12:58:00,54.8,44.4,29.93,WNW,292,20.7,20.7,68,0.00,OVC,,0.02,WeatherDisplay:10.37,2013-04-09 16:58:00,
2013-04-09 13:03:00,54.9,44.5,29.93,West,270,17.3,17.3,68,0.00,OVC,,0.02,WeatherDisplay:10.37,2013-04-09 17:03:00,
2013-04-09 13:08:00,55.5,44.3,29.93,NW,315,18.4,18.4,66,0.00,OVC,,0.02,WeatherDisplay:10.37,2013-04-09 17:08:00,
2013-04-09 13:13:00,55.5,45.1,29.93,West,270,25.3,25.3,68,0.00,OVC,,0.02,WeatherDisplay:10.37,2013-04-09 17:13:00,
2013-04-09 13:19:00,55.7,45.3,29.93,East,90,15.0,15.0,68,0.00,OVC,,0.02,WeatherDisplay:10.37,2013-04-09 17:19:00,
2013-04-09 13:26:00,55.5,45.1,29.93,NNW,338,16.1,16.1,68,0.00,OVC,,0.02,WeatherDisplay:10.37,2013-04-09 17:26:00,
2013-04-09 13:32:00,56.9,45.7,29.93,North,360,19.6,19.6,66,0.00,OVC,,0.02,WeatherDisplay:10.37,2013-04-09 17:32:00,
2013-04-09 13:37:00,56.0,45.5,29.93,West,270,23.0,23.0,68,0.00,OVC,,0.02,WeatherDisplay:10.37,2013-04-09 17:37:00,
2013-04-09 13:42:00,54.9,43.7,29.93,WSW,248,23.0,23.0,66,0.00,OVC,,0.02,WeatherDisplay:10.37,2013-04-09 17:42:00,
2013-04-09 13:47:00,55.2,44.0,29.93,North,360,11.5,11.5,66,0.00,OVC,,0.02,WeatherDisplay:10.37,2013-04-09 17:47:00,
2013-04-09 13:52:00,55.9,45.5,29.93,NW,315,11.7,11.7,68,0.00,OVC,,0.02,WeatherDisplay:10.37,2013-04-09 17:52:00,
2013-04-09 13:57:00,56.6,46.1,29.93,SW,225,20.7,20.7,68,0.00,OVC,,0.02,WeatherDisplay:10.37,2013-04-09 17:57:00,
2013-04-09 14:02:00,55.9,37.5,29.97,WNW,292,11.5,11.5,50,0.00,BKN,,0.02,WeatherDisplay:10.37,2013-04-09 18:02:00,
2013-04-09 14:07:00,55.4,37.1,29.97,WNW,292,31.1,31.1,50,0.00,BKN,,0.02,WeatherDisplay:10.37,2013-04-09 18:07:00,
2013-04-09 14:12:00,56.4,39.5,29.97,West,270,20.7,20.7,53,0.00,BKN,,0.02,WeatherDisplay:10.37,2013-04-09 18:12:00,
2013-04-09 14:17:00,56.9,38.5,29.97,South,180,13.8,13.8,50,0.00,BKN,,0.02,WeatherDisplay:10.37,2013-04-09 18:17:00,
2013-04-09 14:22:00,56.0,39.1,29.97,SW,225,23.0,23.0,53,0.00,BKN,,0.02,WeatherDisplay:10.37,2013-04-09 18:22:00,
2013-04-09 14:27:00,56.9,38.4,29.97,NNW,338,11.5,11.5,50,0.00,BKN,,0.02,WeatherDisplay:10.37,2013-04-09 18:27:00,
2013-04-09 14:32:00,57.4,40.4,27.28,WNW,292,19.6,19.6,53,0.00,BKN,,0.02,WeatherDisplay:10.37,2013-04-09 18:32:00,
2013-04-09 14:37:00,57.3,38.8,29.97,NW,315,19.6,19.6,50,0.00,BKN,,0.02,WeatherDisplay:10.37,2013-04-09 18:37:00,
2013-04-09 14:43:00,57.7,40.6,29.97,WNW,292,19.6,19.6,53,0.00,BKN,,0.02,WeatherDisplay:10.37,2013-04-09 18:43:00,
2013-04-09 14:48:00,58.3,41.2,29.97,SW,225,16.1,16.1,53,0.00,BKN,,0.02,WeatherDisplay:10.37,2013-04-09 18:48:00,
2013-04-09 14:53:00,58.1,41.0,27.28,West,270,25.3,25.3,53,0.00,BKN,,0.02,WeatherDisplay:10.37,2013-04-09 18:53:00,
2013-04-09 14:58:00,57.3,40.3,29.97,NNW,338,24.2,24.2,53,0.00,BKN,,0.02,WeatherDisplay:10.37,2013-04-09 18:58:00,
2013-04-09 15:03:00,57.5,37.4,29.97,ENE,68,12.7,12.7,47,0.00,BKN,,0.02,WeatherDisplay:10.37,2013-04-09 19:03:00,
2013-04-09 15:08:00,57.5,37.4,29.97,NNE,22,7.3,7.3,47,0.00,BKN,,0.02,WeatherDisplay:10.37,2013-04-09 19:08:00,
2013-04-09 15:13:00,58.6,41.0,29.97,West,270,19.8,19.8,52,0.00,BKN,,0.02,WeatherDisplay:10.37,2013-04-09 19:13:00,
2013-04-09 15:18:00,58.4,40.8,29.97,West,270,12.3,12.3,52,0.00,BKN,,0.02,WeatherDisplay:10.37,2013-04-09 19:18:00,
2013-04-09 15:23:00,58.2,40.6,27.28,NW,315,16.3,16.3,52,0.00,BKN,,0.02,WeatherDisplay:10.37,2013-04-09 19:23:00,
2013-04-09 15:28:00,56.8,39.3,29.97,North,360,28.8,28.8,52,0.00,BKN,,0.02,WeatherDisplay:10.37,2013-04-09 19:28:00,
2013-04-09 15:33:00,57.1,39.7,29.97,North,360,16.1,16.1,52,0.00,BKN,,0.02,WeatherDisplay:10.37,2013-04-09 19:33:00,
2013-04-09 15:38:00,57.5,40.0,29.97,NW,315,13.8,13.8,52,0.00,BKN,,0.02,WeatherDisplay:10.37,2013-04-09 19:38:00,
2013-04-09 15:43:00,57.3,39.8,29.97,NW,315,18.4,18.4,52,0.00,BKN,,0.02,WeatherDisplay:10.37,2013-04-09 19:43:00,
2013-04-09 15:48:00,57.7,40.1,29.97,North,360,13.8,13.8,52,0.00,BKN,,0.02,WeatherDisplay:10.37,2013-04-09 19:48:00,
2013-04-09 15:53:00,57.7,37.5,29.97,NW,315,17.3,17.3,47,0.00,BKN,,0.02,WeatherDisplay:10.37,2013-04-09 19:53:00,
2013-04-09 15:58:00,57.4,39.4,29.97,West,270,20.7,20.7,51,0.00,BKN,,0.02,WeatherDisplay:10.37,2013-04-09 19:58:00,
2013-04-09 16:03:00,57.9,37.8,29.96,NW,315,10.7,10.7,47,0.00,CLR,,0.02,WeatherDisplay:10.37,2013-04-09 20:03:00,
2013-04-09 16:08:00,57.2,37.1,29.96,NW,315,17.3,17.3,47,0.00,CLR,,0.02,WeatherDisplay:10.37,2013-04-09 20:08:00,
2013-04-09 16:13:00,56.9,39.0,29.96,North,360,17.3,17.3,51,0.00,CLR,,0.02,WeatherDisplay:10.37,2013-04-09 20:13:00,
2013-04-09 16:18:00,57.1,39.2,29.96,West,270,11.5,11.5,51,0.00,CLR,,0.02,WeatherDisplay:10.37,2013-04-09 20:18:00,
2013-04-09 16:23:00,57.9,39.8,27.28,WNW,292,11.5,11.5,51,0.00,CLR,,0.02,WeatherDisplay:10.37,2013-04-09 20:23:00,
2013-04-09 16:28:00,57.5,37.4,29.96,NW,315,13.8,13.8,47,0.00,CLR,,0.02,WeatherDisplay:10.37,2013-04-09 20:28:00,
2013-04-09 16:33:00,57.5,39.5,29.96,WNW,292,11.5,11.5,51,0.00,CLR,,0.02,WeatherDisplay:10.37,2013-04-09 20:33:00,
2013-04-09 16:38:00,56.6,38.7,29.96,NNW,338,23.0,23.0,51,0.00,CLR,,0.02,WeatherDisplay:10.37,2013-04-09 20:38:00,
2013-04-09 16:43:00,56.4,36.4,29.96,West,270,17.3,17.3,47,0.00,CLR,,0.02,WeatherDisplay:10.37,2013-04-09 20:43:00,
2013-04-09 16:48:00,56.2,38.3,29.96,NNW,338,12.7,12.7,51,0.00,CLR,,0.02,WeatherDisplay:10.37,2013-04-09 20:48:00,
2013-04-09 16:53:00,56.2,36.2,29.96,SW,225,12.7,12.7,47,0.00,CLR,,0.02,WeatherDisplay:10.37,2013-04-09 20:53:00,
2013-04-09 16:58:00,56.5,38.5,29.96,NNW,338,11.5,11.5,51,0.00,CLR,,0.02,WeatherDisplay:10.37,2013-04-09 20:58:00,
2013-04-09 17:03:00,56.2,38.3,29.96,NW,315,15.0,15.0,51,0.00,CLR,,0.02,WeatherDisplay:10.37,2013-04-09 21:03:00,
2013-04-09 17:08:00,56.5,34.8,29.96,NW,315,12.7,12.7,44,0.00,CLR,,0.02,WeatherDisplay:10.37,2013-04-09 21:08:00,
2013-04-09 17:13:00,56.1,34.4,29.96,NNE,22,17.3,17.3,44,0.00,CLR,,0.02,WeatherDisplay:10.37,2013-04-09 21:13:00,
2013-04-09 17:18:00,56.4,37.9,29.96,NW,315,10.4,10.4,50,0.00,CLR,,0.02,WeatherDisplay:10.37,2013-04-09 21:18:00,
2013-04-09 17:23:00,56.3,34.6,29.96,NW,315,10.4,10.4,44,0.00,CLR,,0.02,WeatherDisplay:10.37,2013-04-09 21:23:00,
2013-04-09 17:29:00,56.7,38.2,29.96,NW,315,21.9,21.9,50,0.00,CLR,,0.02,WeatherDisplay:10.37,2013-04-09 21:29:00,
2013-04-09 17:34:00,55.7,34.1,29.96,North,360,11.5,11.5,44,0.00,CLR,,0.02,WeatherDisplay:10.37,2013-04-09 21:34:00,
2013-04-09 17:39:00,55.9,37.0,29.96,WNW,292,11.5,11.5,49,0.00,CLR,,0.02,WeatherDisplay:10.37,2013-04-09 21:39:00,
2013-04-09 17:44:00,55.8,34.2,29.96,NNE,22,5.0,5.0,44,0.00,CLR,,0.02,WeatherDisplay:10.37,2013-04-09 21:44:00,
2013-04-09 17:50:00,55.5,36.1,29.96,West,270,10.4,10.4,48,0.00,CLR,,0.02,WeatherDisplay:10.37,2013-04-09 21:50:00,
2013-04-09 17:55:00,55.6,36.2,29.96,WNW,292,8.1,8.1,48,0.00,CLR,,0.02,WeatherDisplay:10.37,2013-04-09 21:55:00,
2013-04-09 18:00:00,55.5,36.1,29.96,WSW,248,9.2,9.2,48,0.00,CLR,,0.02,WeatherDisplay:10.37,2013-04-09 22:00:00,
2013-04-09 18:06:00,55.4,35.5,29.97,NW,315,10.4,10.4,47,0.00,CLR,,0.02,WeatherDisplay:10.37,2013-04-09 22:06:00,
2013-04-09 18:11:00,55.2,35.9,29.97,NW,315,11.5,11.5,48,0.00,CLR,,0.02,WeatherDisplay:10.37,2013-04-09 22:11:00,
2013-04-09 18:16:00,55.0,35.6,29.97,NW,315,6.9,6.9,48,0.00,CLR,,0.02,WeatherDisplay:10.37,2013-04-09 22:16:00,
2013-04-09 18:21:00,54.6,34.8,29.97,NW,315,13.8,13.8,47,0.00,CLR,,0.02,WeatherDisplay:10.37,2013-04-09 22:21:00,
2013-04-09 18:26:00,54.2,34.4,29.97,NNE,22,5.8,5.8,47,0.00,CLR,,0.02,WeatherDisplay:10.37,2013-04-09 22:26:00,
2013-04-09 18:31:00,53.9,34.6,29.97,NNE,22,4.6,4.6,48,0.00,CLR,,0.02,WeatherDisplay:10.37,2013-04-09 22:31:00,
2013-04-09 18:36:00,53.6,33.8,29.97,NE,45,1.2,1.2,47,0.00,CLR,,0.02,WeatherDisplay:10.37,2013-04-09 22:36:00,
2013-04-09 18:41:00,53.2,33.4,29.97,NNW,338,3.5,3.5,47,0.00,CLR,,0.02,WeatherDisplay:10.37,2013-04-09 22:41:00,
2013-04-09 18:46:00,52.8,33.1,29.97,NW,315,3.5,3.5,47,0.00,CLR,,0.02,WeatherDisplay:10.37,2013-04-09 22:46:00,
2013-04-09 18:51:00,52.5,32.8,29.97,NNE,22,1.2,1.2,47,0.00,CLR,,0.02,WeatherDisplay:10.37,2013-04-09 22:51:00,
2013-04-09 18:56:00,52.3,32.7,29.97,South,180,3.5,3.5,47,0.00,CLR,,0.02,WeatherDisplay:10.37,2013-04-09 22:56:00,
2013-04-09 19:01:00,51.7,32.6,29.97,SW,225,0.0,0.0,48,0.00,CLR,,0.02,WeatherDisplay:10.37,2013-04-09 23:01:00,
2013-04-09 19:06:00,51.1,31.5,29.98,South,180,3.5,3.5,47,0.00,CLR,,0.02,WeatherDisplay:10.37,2013-04-09 23:06:00,
2013-04-09 19:11:00,50.3,30.9,29.98,SE,135,1.2,1.2,47,0.00,CLR,,0.02,WeatherDisplay:10.37,2013-04-09 23:11:00,
2013-04-09 19:16:00,49.8,30.9,29.98,SW,225,1.6,1.6,48,0.00,CLR,,0.02,WeatherDisplay:10.37,2013-04-09 23:16:00,
2013-04-09 19:21:00,49.2,30.3,29.98,SSE,158,3.1,3.1,48,0.00,CLR,,0.02,WeatherDisplay:10.37,2013-04-09 23:21:00,
2013-04-09 19:26:00,48.4,29.6,29.98,SSW,202,1.2,1.2,48,0.00,CLR,,0.02,WeatherDisplay:10.37,2013-04-09 23:26:00,
2013-04-09 19:31:00,47.8,29.0,29.98,NW,315,3.5,3.5,48,0.00,CLR,,0.02,WeatherDisplay:10.37,2013-04-09 23:31:00,
2013-04-09 19:36:00,47.4,28.7,29.98,WSW,248,3.5,3.5,48,0.00,CLR,,0.02,WeatherDisplay:10.37,2013-04-09 23:36:00,
2013-04-09 19:42:00,46.7,27.5,29.98,SW,225,0.0,0.0,47,0.00,CLR,,0.02,WeatherDisplay:10.37,2013-04-09 23:42:00,
2013-04-09 19:48:00,46.2,27.5,29.98,SSW,202,4.6,4.6,48,0.00,CLR,,0.02,WeatherDisplay:10.37,2013-04-09 23:48:00,
2013-04-09 19:53:00,45.7,27.1,27.28,SW,225,4.7,4.7,48,0.00,CLR,,0.02,WeatherDisplay:10.37,2013-04-09 23:53:00,
2013-04-09 19:58:00,45.7,27.1,29.98,SSW,202,4.6,4.6,48,0.00,CLR,,0.02,WeatherDisplay:10.37,2013-04-09 23:58:00,
2013-04-09 20:03:00,45.2,26.7,30.01,South,180,4.6,4.6,48,0.00,CLR,,0.02,WeatherDisplay:10.37,2013-04-10 00:03:00,
2013-04-09 20:08:00,44.9,30.6,30.01,SW,225,5.8,5.8,57,0.00,CLR,,0.02,WeatherDisplay:10.37,2013-04-10 00:08:00,
2013-04-09 20:14:00,44.8,28.2,30.01,South,180,5.8,5.8,52,0.00,CLR,,0.02,WeatherDisplay:10.37,2013-04-10 00:14:00,
2013-04-09 20:19:00,44.4,30.1,30.01,South,180,4.6,4.6,57,0.00,CLR,,0.02,WeatherDisplay:10.37,2013-04-10 00:19:00,
2013-04-09 20:24:00,44.2,29.9,30.01,SSW,202,6.9,6.9,57,0.00,CLR,,0.02,WeatherDisplay:10.37,2013-04-10 00:24:00,
2013-04-09 20:29:00,44.2,27.6,30.01,South,180,3.5,3.5,52,0.00,CLR,,0.02,WeatherDisplay:10.37,2013-04-10 00:29:00,
2013-04-09 20:34:00,43.9,27.4,30.01,SW,225,4.6,4.6,52,0.00,CLR,,0.02,WeatherDisplay:10.37,2013-04-10 00:34:00,
2013-04-09 20:39:00,43.6,27.2,30.01,West,270,3.5,3.5,52,0.00,CLR,,0.02,WeatherDisplay:10.37,2013-04-10 00:39:00,
2013-04-09 20:45:00,43.6,27.1,30.01,SSW,202,6.1,6.1,52,0.00,CLR,,0.02,WeatherDisplay:10.37,2013-04-10 00:45:00,
2013-04-09 20:50:00,43.3,26.8,30.01,South,180,6.9,6.9,52,0.00,CLR,,0.02,WeatherDisplay:10.37,2013-04-10 00:50:00,
2013-04-09 20:55:00,43.6,27.1,30.01,SW,225,4.6,4.6,52,0.00,CLR,,0.02,WeatherDisplay:10.37,2013-04-10 00:55:00,
2013-04-09 21:00:00,43.5,27.1,30.01,SW,225,4.6,4.6,52,0.00,CLR,,0.02,WeatherDisplay:10.37,2013-04-10 01:00:00,
2013-04-09 21:05:00,43.3,27.3,30.01,SW,225,3.5,3.5,53,0.00,CLR,,0.02,WeatherDisplay:10.37,2013-04-10 01:05:00,
2013-04-09 21:10:00,43.3,28.2,30.01,South,180,4.6,4.6,55,0.00,CLR,,0.02,WeatherDisplay:10.37,2013-04-10 01:10:00,
2013-04-09 21:15:00,43.1,28.4,30.01,SW,225,6.9,6.9,56,0.00,CLR,,0.02,WeatherDisplay:10.37,2013-04-10 01:15:00,
2013-04-09 21:20:00,43.0,28.3,30.01,SSW,202,3.5,3.5,56,0.00,CLR,,0.02,WeatherDisplay:10.37,2013-04-10 01:20:00,
2013-04-09 21:25:00,42.9,28.2,30.01,SSW,202,4.6,4.6,56,0.00,CLR,,0.02,WeatherDisplay:10.37,2013-04-10 01:25:00,
2013-04-09 21:30:00,42.9,28.2,30.01,SSW,202,4.6,4.6,56,0.00,CLR,,0.02,WeatherDisplay:10.37,2013-04-10 01:30:00,
2013-04-09 21:35:00,42.7,30.2,30.01,SW,225,3.5,3.5,61,0.00,CLR,,0.02,WeatherDisplay:10.37,2013-04-10 01:35:00,
2013-04-09 21:41:00,42.7,30.2,30.01,South,180,5.0,5.0,61,0.00,CLR,,0.02,WeatherDisplay:10.37,2013-04-10 01:41:00,
2013-04-09 21:47:00,42.7,28.1,30.01,SW,225,6.9,6.9,56,0.00,CLR,,0.02,WeatherDisplay:10.37,2013-04-10 01:47:00,
2013-04-09 21:52:00,42.8,28.2,30.01,SW,225,6.9,6.9,56,0.00,CLR,,0.02,WeatherDisplay:10.37,2013-04-10 01:52:00,
2013-04-09 21:58:00,42.7,28.1,30.01,SSW,202,4.6,4.6,56,0.00,CLR,,0.02,WeatherDisplay:10.37,2013-04-10 01:58:00,
2013-04-09 22:03:00,42.5,27.9,30.03,SW,225,3.1,3.1,56,0.00,OVC,,0.02,WeatherDisplay:10.37,2013-04-10 02:03:00,
2013-04-09 22:08:00,42.4,31.0,30.03,South,180,5.8,5.8,64,0.00,OVC,,0.02,WeatherDisplay:10.37,2013-04-10 02:08:00,
2013-04-09 22:13:00,42.1,30.8,30.03,South,180,4.6,4.6,64,0.00,OVC,,0.02,WeatherDisplay:10.37,2013-04-10 02:13:00,
2013-04-09 22:19:00,42.3,31.7,30.03,South,180,3.5,3.5,66,0.00,OVC,,0.02,WeatherDisplay:10.37,2013-04-10 02:19:00,
2013-04-09 22:24:00,42.1,30.8,30.03,SSW,202,6.9,6.9,64,0.00,OVC,,0.02,WeatherDisplay:10.37,2013-04-10 02:24:00,
2013-04-09 22:29:00,42.1,30.8,30.03,SSW,202,4.6,4.6,64,0.00,OVC,,0.02,WeatherDisplay:10.37,2013-04-10 02:29:00,
2013-04-09 22:34:00,42.2,30.9,30.03,SSW,202,3.5,3.5,64,0.00,OVC,,0.02,WeatherDisplay:10.37,2013-04-10 02:34:00,
2013-04-09 22:39:00,42.0,30.7,30.03,SW,225,4.6,4.6,64,0.00,OVC,,0.02,WeatherDisplay:10.37,2013-04-10 02:39:00,
2013-04-09 22:44:00,41.8,31.3,30.03,SW,225,4.6,4.6,66,0.00,OVC,,0.02,WeatherDisplay:10.37,2013-04-10 02:44:00,
2013-04-09 22:49:00,41.9,30.6,30.03,South,180,3.5,3.5,64,0.00,OVC,,0.02,WeatherDisplay:10.37,2013-04-10 02:49:00,
2013-04-09 22:54:00,41.8,30.5,30.03,South,180,6.9,6.9,64,0.00,OVC,,0.02,WeatherDisplay:10.37,2013-04-10 02:54:00,
2013-04-09 22:59:00,41.3,30.8,30.03,SSW,202,3.8,3.8,66,0.00,OVC,,0.02,WeatherDisplay:10.37,2013-04-10 02:59:00,
2013-04-09 23:04:00,41.2,30.7,29.97,SW,225,3.5,3.5,66,0.00,OVC,,0.02,WeatherDisplay:10.37,2013-04-10 03:04:00,
2013-04-09 23:09:00,41.1,29.9,29.97,SSW,202,3.0,3.0,64,0.00,OVC,,0.02,WeatherDisplay:10.37,2013-04-10 03:09:00,
2013-04-09 23:14:00,41.1,30.6,29.97,West,270,3.5,3.5,66,0.00,OVC,,0.02,WeatherDisplay:10.37,2013-04-10 03:14:00,
2013-04-09 23:19:00,41.1,29.9,29.97,SW,225,3.5,3.5,64,0.00,OVC,,0.02,WeatherDisplay:10.37,2013-04-10 03:19:00,
2013-04-09 23:24:00,41.1,29.8,29.97,SSW,202,1.2,1.2,64,0.00,OVC,,0.02,WeatherDisplay:10.37,2013-04-10 03:24:00,
2013-04-09 23:29:00,40.8,29.6,29.97,SW,225,0.0,0.1,64,0.00,OVC,,0.02,WeatherDisplay:10.37,2013-04-10 03:29:00,
2013-04-09 23:34:00,40.8,30.3,29.97,SSW,202,3.5,3.5,66,0.00,OVC,,0.02,WeatherDisplay:10.37,2013-04-10 03:34:00,
2013-04-09 23:39:00,40.6,29.3,29.97,SSW,202,3.5,3.5,64,0.00,OVC,,0.02,WeatherDisplay:10.37,2013-04-10 03:39:00,
2013-04-09 23:44:00,40.6,29.3,29.97,SSW,202,4.5,4.5,64,0.00,OVC,,0.02,WeatherDisplay:10.37,2013-04-10 03:44:00,
2013-04-09 23:50:00,40.6,29.3,29.97,SSE,158,3.5,3.5,64,0.00,OVC,,0.02,WeatherDisplay:10.37,2013-04-10 03:50:00,
2013-04-09 23:55:00,40.4,29.2,29.97,SW,225,3.5,3.5,64,0.00,OVC,,0.02,WeatherDisplay:10.37,2013-04-10 03:55:00,